Regional Weather Roundup
Issued by NWS Kansas City/Pleasant Hill, MO

Home | Current Version | Previous Version | Graphics & Text | Print | Product List | Glossary Off
Versions: 1 2 3 4 5 6 7 8 9 10 11 12 13 14 15 16 17 18 19 20 21 22 23 24 25 26 27 28 29 30 31 32 33 34 35 36 37 38 39 40 41 42 43 44 45 46 47

000
ASUS43 KEAX 302110
RWREAX

WEATHER ROUNDUP FOR EASTERN KANSAS AND NORTHWEST MISSOURI
NATIONAL WEATHER SERVICE KANSAS CITY/PLEASANT HILL MO
400 PM CDT SUN AUG 30 2015

KSZ040-057-103>105-MOZ028-029-037-043-302200-
...KANSAS CITY METROPOLITAN AREA...

CITY           SKY/WX    TMP DP  RH WIND       PRES   REMARKS
K.C. INTL      MOSUNNY   85  64  49 VRB6      30.00F
K.C. DOWNTOWN  MOSUNNY   84  70  62 VRB5      29.98F
LEES SUMMIT    PTSUNNY   82  70  66 E7        30.00F
OLATHE - IXD   MOSUNNY   82  68  62 SE9       30.00F
OLATHE - OJC   SUNNY     81  70  69 SE8       29.99F
LAWRENCE       MOSUNNY   84  68  58 VRB6      29.99F

$$

MOZ001>008-011>017-020>025-030>033-038>040-044>046-053-054-302200-
...NORTHERN AND CENTRAL MISSOURI...

CITY           SKY/WX    TMP DP  RH WIND       PRES   REMARKS
ST. JOSEPH     MOSUNNY   83  69  62 VRB5      30.00F
MOSBY          MOCLDY    82  68  61 E6        29.99F
WHITEMAN AFB   PTSUNNY   85  71  60 VRB2      29.98F HX  90
CLINTON        SUNNY     88  73  62 SE5       29.98F HX  96
SEDALIA        PTSUNNY   87  70  56 SE6       30.00F HX  92
WARSAW         NOT AVBL
CHILLICOTHE      N/A     85  71  63 E6        30.01F HX  90
KIRKSVILLE     PTSUNNY   84  66  54 VRB3      30.03F

$$

MOZ041-047>049-056>058-063>065-088>090-097-302200-
...EASTERN AND SOUTHERN MISSOURI...

CITY           SKY/WX    TMP DP  RH WIND       PRES   REMARKS
ST. LOUIS INTL PTSUNNY   87  67  51 E7        30.00F HX  90
SPIRIT OF STL  MOSUNNY   87  70  56 CALM      29.99F HX  92
COLUMBIA       MOSUNNY   85  71  63 E6        30.00F HX  90
JEFFERSON CITY PTSUNNY   86  69  56 E6        29.98F HX  90
ROLLA          PTSUNNY   86  67  52 S7        30.00F
OSAGE BEACH    MOSUNNY   88  70  55 S6        30.00F HX  92
SPRINGFIELD    SUNNY     85  67  54 SE10      30.01F
BRANSON        PTSUNNY   84  68  58 S5        30.03F
JOPLIN         PTSUNNY   86  69  56 S7        29.97F HX  90
WEST PLAINS    MOSUNNY   84  70  62 S6        30.04F

$$

IAZ060-094-KSZ022-034>040-054-083-096-NEZ052-066-093-302200-
...KANSAS...SOUTHEAST NEBRASKA AND IOWA...

CITY           SKY/WX    TMP DP  RH WIND       PRES   REMARKS
TOPEKA         SUNNY     83  68  60 CALM      29.99F
MANHATTAN      PTSUNNY   80  68  66 VRB3      29.99F
EMPORIA        PTSUNNY   81  68  64 E7        29.99F
CHANUTE        CLOUDY    82  69  64 SE3       29.99S
WICHITA        MOSUNNY   82  64  54 SE6       29.98F
OMAHA          PTSUNNY   75  65  70 S12       30.00F
LINCOLN        SUNNY     78  66  66 SE13      30.01F
FALLS CITY     PTSUNNY   80  69  69 VRB5      30.00F
LAMONI         MOSUNNY   79  69  71 S7        30.02F
DES MOINES     PTSUNNY   78  66  66 S7        30.01F

$$



USA.gov is the U.S. government's official web portal to all federal, state and local government web resources and services.